York, NE

6:38 PM CDT on August 28, 2016 (GMT -0500)
York Municipal

Weather History for KJYR - August, 2013

Change the Weather History Date:

Monday, August 26, 2013

  Actual Average Record
Temperature  
Mean Temperature 83 °F -  
Max Temperature 95 °F 86 °F 106 °F (1955)
Min Temperature 71 °F 62 °F 49 °F (1964)
Cooling Degree Days 18    
Growing Degree Days 33 (Base 50)    
Moisture  
Dew Point 69 °F    
Average Humidity 65    
Maximum Humidity 88    
Minimum Humidity 46    
Precipitation  
Precipitation 0.00 in - - ()
Sea Level Pressure  
Sea Level Pressure 30.04 in    
Wind  
Wind Speed 12 mph (SSW)    
Max Wind Speed 18 mph    
Max Gust Speed 23 mph    
Visibility 10 miles    
Events      
Averages and records for this station are not official NWS values.
T = Trace of Precipitation, MM = Missing Value Source: NWS Daily Summary

Daily Weather History Graph

Daily Weather History Graph

Search for Another Location

Airport or City:

Trip Planner

Search our weather history database for the weather conditions in past years. The results will help you decide how hot, cold, wet, or windy it might be!

Date:

Astronomy

Aug. 26, 2013 Rise Set
Actual Time 6:51 AM CDT 8:11 PM CDT
Civil Twilight 6:23 AM CDT 8:40 PM CDT
Nautical Twilight 5:48 AM CDT 9:14 PM CDT
Astronomical Twilight 5:12 AM CDT 9:50 PM CDT
Moon 11:20 PM CDT (8/26) 12:57 PM CDT (8/26)
Length of Visible Light 14h 17m
Length of Day
13h 20m
Waning Gibbous, 66% of the Moon is Illuminated
Aug 26
Waning Gibbous
Aug 28
Last Quarter
Sep 5
New
Sep 12
First Quarter
Sep 19
Full

Hourly Weather History & Observations

Time (CDT) Temp. Heat Index Dew Point Humidity Pressure Visibility Wind Dir Wind Speed Gust Speed Precip Events Conditions
12:15 AM 78.8 °F - 69.8 °F 74% 30.10 in 10.0 mi South 11.5 mph - N/A   Clear
12:35 AM 77.0 °F - 69.8 °F 78% 30.10 in 10.0 mi South 10.4 mph - N/A   Clear
12:55 AM 77.0 °F - 69.8 °F 78% 30.10 in 10.0 mi South 11.5 mph - N/A   Clear
1:15 AM 77.0 °F - 68.0 °F 74% 30.10 in 10.0 mi South 11.5 mph - N/A   Clear
1:35 AM 77.0 °F - 68.0 °F 74% 30.10 in 10.0 mi South 10.4 mph - N/A   Clear
1:55 AM 75.2 °F - 68.0 °F 78% 30.10 in 10.0 mi South 9.2 mph - N/A   Clear
2:15 AM 75.2 °F - 68.0 °F 78% 30.10 in 10.0 mi South 10.4 mph - N/A   Clear
2:35 AM 75.2 °F - 68.0 °F 78% 30.10 in 10.0 mi South 10.4 mph - N/A   Clear
2:55 AM 75.2 °F - 68.0 °F 78% 30.10 in 10.0 mi SSW 9.2 mph - N/A   Clear
3:15 AM 73.4 °F - 68.0 °F 83% 30.10 in 10.0 mi South 10.4 mph 16.1 mph N/A   Clear
3:35 AM 73.4 °F - 68.0 °F 83% 30.10 in 10.0 mi South 8.1 mph - N/A   Clear
3:55 AM 73.4 °F - 68.0 °F 83% 30.09 in 10.0 mi SSW 10.4 mph - N/A   Clear
4:15 AM 73.4 °F - 68.0 °F 83% 30.09 in 10.0 mi South 9.2 mph - N/A   Clear
4:35 AM 73.4 °F - 68.0 °F 83% 30.09 in 10.0 mi South 9.2 mph - N/A   Clear
4:55 AM 71.6 °F - 68.0 °F 88% 30.09 in 10.0 mi South 10.4 mph - N/A   Clear
5:15 AM 71.6 °F - 68.0 °F 88% 30.09 in 10.0 mi South 9.2 mph - N/A   Clear
5:35 AM 71.6 °F - 68.0 °F 88% 30.09 in 10.0 mi South 8.1 mph - N/A   Clear
5:55 AM 71.6 °F - 68.0 °F 88% 30.09 in 10.0 mi South 8.1 mph - N/A   Clear
6:15 AM 71.6 °F - 68.0 °F 88% 30.09 in 10.0 mi South 9.2 mph - N/A   Clear
6:35 AM 71.6 °F - 68.0 °F 88% 30.09 in 10.0 mi South 9.2 mph - N/A   Clear
6:55 AM 71.6 °F - 68.0 °F 88% 30.09 in 10.0 mi South 10.4 mph - N/A   Clear
7:15 AM 71.6 °F - 68.0 °F 88% 30.09 in 10.0 mi SSW 9.2 mph - N/A   Clear
7:35 AM 71.6 °F - 68.0 °F 88% 30.09 in 10.0 mi SSW 10.4 mph - N/A   Clear
7:55 AM 71.6 °F - 68.0 °F 88% 30.09 in 10.0 mi SSW 9.2 mph - N/A   Clear
8:15 AM 73.4 °F - 68.0 °F 83% 30.09 in 10.0 mi SSW 9.2 mph - N/A   Clear
8:35 AM 73.4 °F - 68.0 °F 83% 30.09 in 10.0 mi SSW 10.4 mph - N/A   Clear
8:55 AM 77.0 °F - 68.0 °F 74% 30.08 in 10.0 mi SSW 11.5 mph - N/A   Clear
9:15 AM 78.8 °F - 68.0 °F 69% 30.07 in 10.0 mi SSW 11.5 mph - N/A   Clear
9:35 AM 80.6 °F 83.2 °F 68.0 °F 65% 30.07 in 10.0 mi SSW 11.5 mph - N/A   Clear
9:55 AM 80.6 °F 83.2 °F 68.0 °F 65% 30.07 in 10.0 mi SW 15.0 mph - N/A   Clear
10:15 AM 82.4 °F 85.4 °F 68.0 °F 62% 30.07 in 10.0 mi SSW 11.5 mph 18.4 mph N/A   Clear
10:35 AM 84.2 °F 87.3 °F 68.0 °F 58% 30.07 in 10.0 mi SW 13.8 mph 19.6 mph N/A   Clear
10:55 AM 86.0 °F 90.4 °F 69.8 °F 58% 30.07 in 10.0 mi SSW 15.0 mph 20.7 mph N/A   Clear
11:15 AM 87.8 °F 92.6 °F 69.8 °F 55% 30.07 in 10.0 mi SSW 10.4 mph 17.3 mph N/A   Clear
11:35 AM 87.8 °F 91.4 °F 68.0 °F 52% 30.06 in 10.0 mi SSW 12.7 mph 21.9 mph N/A   Clear
11:55 AM 89.6 °F 94.7 °F 69.8 °F 52% 30.07 in 10.0 mi SSW 13.8 mph 18.4 mph N/A   Clear
12:15 PM 89.6 °F 94.7 °F 69.8 °F 52% 30.06 in 10.0 mi SSW 16.1 mph 19.6 mph N/A   Clear
12:35 PM 89.6 °F 94.7 °F 69.8 °F 52% 30.06 in 10.0 mi SSW 13.8 mph 18.4 mph N/A   Clear
12:55 PM 91.4 °F 96.8 °F 69.8 °F 49% 30.05 in 10.0 mi SW 11.5 mph - N/A   Clear
1:15 PM 91.4 °F 95.4 °F 68.0 °F 46% 30.05 in 10.0 mi SSW 17.3 mph 23.0 mph N/A   Clear
1:35 PM 91.4 °F 98.4 °F 71.6 °F 52% 30.04 in 10.0 mi SSW 16.1 mph 20.7 mph N/A   Clear
1:55 PM 93.2 °F 98.8 °F 69.8 °F 46% 30.03 in 10.0 mi SSW 13.8 mph 20.7 mph N/A   Clear
2:15 PM 93.2 °F 98.8 °F 69.8 °F 46% 30.03 in 10.0 mi SSW 12.7 mph 23.0 mph N/A   Clear
2:35 PM 93.2 °F 98.8 °F 69.8 °F 46% 30.03 in 10.0 mi SSW 15.0 mph 21.9 mph N/A   Clear
2:55 PM 93.2 °F 98.8 °F 69.8 °F 46% 30.02 in 10.0 mi SSW 18.4 mph 21.9 mph N/A   Clear
3:15 PM 93.2 °F 100.5 °F 71.6 °F 49% 30.02 in 10.0 mi SSW 15.0 mph 21.9 mph N/A   Clear
3:35 PM 95.0 °F 103.2 °F 71.6 °F 47% 30.01 in 10.0 mi South 15.0 mph 23.0 mph N/A   Clear
3:55 PM 93.2 °F 100.5 °F 71.6 °F 49% 30.01 in 10.0 mi South 16.1 mph 21.9 mph N/A   Clear
4:15 PM 93.2 °F 100.5 °F 71.6 °F 49% 30.00 in 10.0 mi South 16.1 mph 21.9 mph N/A   Clear
4:35 PM 93.2 °F 98.8 °F 69.8 °F 46% 29.99 in 10.0 mi South 11.5 mph 20.7 mph N/A   Clear
4:55 PM 93.2 °F 98.8 °F 69.8 °F 46% 29.99 in 10.0 mi South 15.0 mph - N/A   Clear
5:15 PM 95.0 °F 103.2 °F 71.6 °F 47% 29.99 in 10.0 mi South 15.0 mph 20.7 mph N/A   Clear
5:35 PM 93.2 °F 100.5 °F 71.6 °F 49% 29.99 in 10.0 mi South 13.8 mph - N/A   Clear
5:55 PM 93.2 °F 100.5 °F 71.6 °F 49% 29.99 in 10.0 mi South 16.1 mph 20.7 mph N/A   Clear
6:15 PM 93.2 °F 98.8 °F 69.8 °F 46% 29.98 in 10.0 mi South 12.7 mph 18.4 mph N/A   Clear
6:35 PM 91.4 °F 96.8 °F 69.8 °F 49% 29.98 in 10.0 mi South 13.8 mph - N/A   Clear
6:55 PM 91.4 °F 96.8 °F 69.8 °F 49% 29.97 in 10.0 mi South 12.7 mph 18.4 mph N/A   Clear
7:15 PM 89.6 °F 94.7 °F 69.8 °F 52% 29.97 in 10.0 mi South 11.5 mph - N/A   Clear
7:35 PM 87.8 °F 91.4 °F 68.0 °F 52% 29.97 in 10.0 mi South 11.5 mph - N/A   Clear
7:55 PM 86.0 °F 90.4 °F 69.8 °F 58% 29.97 in 10.0 mi South 10.4 mph - N/A   Clear
8:15 PM 84.2 °F 88.4 °F 69.8 °F 62% 29.97 in 10.0 mi South 11.5 mph - N/A   Clear
8:35 PM 84.2 °F 88.4 °F 69.8 °F 62% 29.97 in 10.0 mi South 11.5 mph - N/A   Clear
8:55 PM 82.4 °F 85.4 °F 68.0 °F 62% 29.97 in 10.0 mi South 12.7 mph - N/A   Clear
9:15 PM 82.4 °F 85.4 °F 68.0 °F 62% 29.98 in 10.0 mi South 12.7 mph - N/A   Clear
9:35 PM 82.4 °F 85.4 °F 68.0 °F 62% 29.98 in 10.0 mi South 12.7 mph - N/A   Clear
9:55 PM 80.6 °F 83.2 °F 68.0 °F 65% 29.97 in 10.0 mi South 12.7 mph 18.4 mph N/A   Clear
10:15 PM 80.6 °F 83.2 °F 68.0 °F 65% 29.97 in 10.0 mi South 15.0 mph 19.6 mph N/A   Clear
10:35 PM 80.6 °F 83.2 °F 68.0 °F 65% 29.97 in 10.0 mi SSW 12.7 mph 18.4 mph N/A   Clear
10:55 PM 80.6 °F 83.2 °F 68.0 °F 65% 29.97 in 10.0 mi SSW 13.8 mph 19.6 mph N/A   Clear
11:15 PM 78.8 °F - 68.0 °F 69% 29.98 in 10.0 mi SSW 13.8 mph 18.4 mph N/A   Clear
11:35 PM 78.8 °F - 68.0 °F 69% 29.98 in 10.0 mi SSW 12.7 mph - N/A   Clear
11:55 PM 77.0 °F - 68.0 °F 74% 29.98 in 10.0 mi SSW 10.4 mph 17.3 mph N/A   Clear